Location: Angwan Shehu
(11.2514°N, 7.4613°E)
Time: 11:11:10
(UTC+00:00)

Transit 2A - Visible Passes

Search period start: 18 April 2021 00:00
Search period end: 28 April 2021 00:00
Orbit: 602 x 957 km, 66.7° (Epoch: 17 April)

Date Brightness Start Highest point End Pass type
(mag) Time Alt. Az. Time Alt. Az. Time Alt. Az.
19 Apr 8.2 04:50:27 10° SSE 04:55:00 27° ESE 04:59:12 10° NE visible
20 Apr 8.8 04:17:35 10° SSE 04:20:50 16° ESE 04:23:54 10° ENE visible
22 Apr 6.0 04:50:07 10° SSW 04:55:31 87° ESE 05:00:24 10° NNE visible
23 Apr 6.8 04:16:09 10° S 04:21:23 50° ESE 04:26:06 10° NE visible
24 Apr 7.7 03:42:35 10° S 03:47:13 30° ESE 03:51:29 10° NE visible
25 Apr 8.4 03:09:34 10° SSE 03:13:03 18° ESE 03:16:20 10° ENE visible
25 Apr 6.8 04:51:31 10° SW 04:55:59 28° WNW 05:00:07 10° N visible
26 Apr 6.1 04:17:41 15° SW 04:21:51 48° WNW 04:26:29 10° N visible
27 Apr 5.8 03:45:35 36° SSW 03:47:44 84° WNW 03:52:32 10° NNE visible
